Regional Weather Roundup
Issued by NWS

Home | Current Version | Previous Version | Graphics & Text | Print | Product List | Glossary Off
Versions: 1 2 3 4 5 6 7 8 9 10 11 12 13 14 15 16 17 18 19 20 21 22 23 24 25 26 27 28 29 30 31 32 33 34 35 36 37 38 39 40 41 42 43 44 45 46 47 48 49 50

000
ASUS43 KDTX 060501
RWRMI
MICHIGAN HOURLY REGIONAL WEATHER ROUNDUP
NATIONAL WEATHER SERVICE DETROIT/PONTIAC MI
1200 AM EST SAT FEB 06 2016

NOTE: "FAIR" INDICATES FEW OR NO CLOUDS BELOW 12,000 FEET WITH NO
SIGNIFICANT WEATHER AND/OR OBSTRUCTION TO VISIBILITY.

MIZ047>049-052>055-059>063-066>070-074>076-081>083-060600-
SOUTHEAST LOWER MICHIGAN

CITY           SKY/WX    TMP DP  RH WIND       PRES   REMARKS
ADRIAN         CLOUDY    35  24  64 NW10      30.29R WCI  27
ALMA           CLOUDY    27  20  77 W6        30.27S WCI  20
ANN ARBOR      CLOUDY    30  25  81 W10       30.26S WCI  21
BAD AXE        CLOUDY    30  28  94 W5        30.23F WCI  25
CARO           CLOUDY    29  27  92 W7        30.23F WCI  22
DETROIT CITY   CLOUDY    33  26  75 W5        30.25S WCI  29
DETROIT        CLOUDY    32  25  75 SW7       30.27S WCI  26
FLINT          CLOUDY    31  20  63 W12       30.25S WCI  22
GROSSE ILE     CLOUDY    32  27  80 SW5       30.26R WCI  27
HILLSDALE      MOCLDY    26  23  86 W8        30.27S WCI  18
HOWELL         MOCLDY    28  22  81 W8        30.25S WCI  19

CITY           SKY/WX    TMP DP  RH WIND       PRES   REMARKS
JACKSON        CLEAR     25  18  74 W8        30.27S WCI  16
LAMBERTVILLE   CLOUDY    31  26  80 W6        30.29R WCI  25
LANSING        MOCLDY    26  19  74 W8        30.28S WCI  18
LAPEER         CLOUDY    30  27  90 W3        30.23F
MASON          MOCLDY    26  20  77 W6        30.27S WCI  19
MONROE         CLOUDY    32  27  81 SW7       30.27R WCI  25
MT. CLEMENS    CLOUDY    32  27  81 W6        30.23F WCI  27
PONTIAC        CLOUDY    30  26  85 NW7       30.23S WCI  23
PORT HOPE        N/A     29  27  92 W5        30.22F WCI  24
PORT HURON     CLOUDY    30  28  93 CALM      30.24F
TRI CITIES     CLOUDY    29  20  69 W7        30.25F WCI  22
MIDLAND        MOCLDY    28  18  66 W3        30.25F
TROY           CLOUDY    33  28  85 W5        30.26S WCI  28
SAGINAW HB     CLOUDY    30  27  86 W6        30.25F WCI  24
$$
MIZ043>046-050>051-056>058-064>065-071>073-077>080-060600-
SOUTHWEST LOWER MICHIGAN

CITY           SKY/WX    TMP DP  RH WIND       PRES   REMARKS
BATTLE CREEK   CLOUDY    25  20  81 SW5       30.29S WCI  19
BENTON HARBOR  MOCLDY    27  21  78 S3        30.30F
BIG RAPIDS     CLOUDY    23  18  80 CALM      30.24F
COLDWATER      CLEAR     23  20  86 W3        30.29F
FREMONT        CLOUDY    23  18  81 SW3       30.27F
HOLLAND        CLOUDY    24  20  84 CALM      30.29F
GRAND RAPIDS   CLOUDY    26  19  74 W5        30.28F WCI  20
IONIA          CLOUDY    25  18  76 W6        30.28R WCI  18
KALAMAZOO      PTCLDY    26  19  74 SW3       30.29F
LUDINGTON      MOCLDY    23  19  85 CALM      30.27F
MARSHALL       MOCLDY    23  19  84 CALM      30.29S
MOUNT PLEASANT PTCLDY    27  17  67 W3        30.25F
MUSKEGON       CLOUDY    26  19  74 E3        30.29F
SOUTH HAVEN    MOCLDY    25  22  86 CALM      30.30F
$$
MIZ016>042-060600-
NORTHERN LOWER MICHIGAN

CITY           SKY/WX    TMP DP  RH WIND       PRES   REMARKS
ALPENA         PTCLDY    17  14  88 CALM      30.22F
BEAVER ISLAND  MOCLDY    28  20  71 SW9       30.17F WCI  20
BELLAIRE       CLOUDY    23  17  77 SW5       30.23F WCI  17
CADILLAC       CLOUDY    18  15  87 SW5       30.20F WCI  11
CHARLEVOIX     CLOUDY    26  19  74 SW7       30.22F WCI  18
FRANKFORT      CLOUDY    26  19  73 CALM      30.23S
GAYLORD        CLOUDY    20  15  81 SW8       30.17F WCI  10
GRAYLING       CLOUDY    17  15  89 CALM      30.20F
HARBOR SPRINGS PTCLDY    25  18  74 SW9       30.19F WCI  15
HOUGHTON LAKE  CLOUDY    19  15  84 SW5       30.21F WCI  12
MANISTEE       CLOUDY    23  16  74 S5        30.25F WCI  17
OSCODA         CLOUDY    24  21  90 W3        30.22F
PELLSTON       PTCLDY    24  16  71 S5        30.19F WCI  18
ROGERS CITY    CLOUDY    21  14  75 SW6       30.22F WCI  13
TRAVERSE CITY  CLOUDY    23  15  71 S3        30.21F
$$
MIZ007>008-015-060600-
EASTERN UPPER MICHIGAN

CITY           SKY/WX    TMP DP  RH WIND       PRES   REMARKS
KINROSS        CLOUDY    21  19  93 S5        30.15F WCI  15
MACKINAC ISLAN PTCLDY    24  19  80 S6        30.16F WCI  17
NEWBERRY       CLOUDY    23  17  75 SW12      30.12F WCI  12
S. S. MARIE    CLOUDY    20  13  74 S3        30.15F
$$
MIZ004>006-011>014-085-060600-
CENTRAL UPPER MICHIGAN

CITY           SKY/WX    TMP DP  RH WIND       PRES   REMARKS
MANISTIQUE     CLOUDY    27  18  70 SW8G16    30.15F WCI  18
ESCANABA       CLOUDY    25  14  63 SW12      30.16F WCI  14
MENOMINEE      CLOUDY    21  14  73 SW7       30.20S WCI  13
SAWYER-GWINN   CLOUDY    23  11  60 SW14      30.06F WCI  11
$$
MIZ001>003-009>011-084-060600-
WESTERN UPPER MICHIGAN

CITY           SKY/WX    TMP DP  RH WIND       PRES   REMARKS
IRON MOUNTAIN  CLOUDY    24  10  55 SW7       30.10F WCI  16
HOUGHTON       LGT SNOW  25  17  72 W21G26    30.02F WCI  11
COPPER HARBOR    N/A     25  19  78 SW6       30.03F WCI  18
IRONWOOD       CLOUDY    23  16  74 SW14      30.07S WCI  11
$$

ABBREVIATIONS USED IN REMARKS
   TC - TEMPERATURE IN CELSIUS
  WCI - WIND CHILL INDEX
   HX - HEAT INDEX
  VSB - VISIBILITY




USA.gov is the U.S. government's official web portal to all federal, state and local government web resources and services.